Theta_e
291 291 290 290 289 289 288 288 289 289 288 288 288 288 288 287 286 286 286 285 286 288
291 290 290 290 289 289 288 289 289 288 288 288 288 287 287 286 285 286 286 286 287 288
291 290 290 289 288 288 288 289 288 288 287 287 287 287 286 285 286 285 285 285 287 286
290 290 289 288 288 288 288 288 287 287 287 287 287 286 285 285 284 282 283 286 286 284
290 290 289 288 288 288 287 287 287 287 287 287 286 285 284 282 282 282 285 286 282 281
289 289 288 287 287 287 287 286 287 287 286 286 285 283 282 282 282 285 286 282 280 281
288 289 288 287 287 287 286 286 286 286 285 284 283 282 282 282 283 286 283 281 280 281
289 288 287 286 286 286 285 285 285 285 284 282 282 282 281 282 285 283 281 280 279 280
287 287 286 286 285 285 284 284 284 283 282 281 282 284 286 287 284 281 279 276 277 278
287 286 285 285 284 284 284 283 282 278 275 273 275 283 286 287 284 275 273 272 274 275
286 285 284 284 284 282 281 280 276 273 271 269 272 284 286 287 280 269 269 268 271 272
286 285 284 283 282 278 279 282 279 272 270 269 271 283 285 282 272 270 269 269 270 272
285 285 284 284 281 278 276 281 279 274 272 272 273 281 285 282 270 268 266 267 269 277
284 284 284 282 278 281 281 282 280 278 270 271 272 274 285 285 269 269 266 266 269 271
Wind_Speed
9 6 5 6 4 4 4 4 4 4 4 2 1 1 2 3 4 5 4 7 9 9
9 8 7 7 6 4 4 3 5 5 4 2 2 2 3 3 4 4 5 7 10 8
10 8 7 6 7 6 5 5 5 5 4 3 2 3 3 3 4 5 5 7 10 11
8 7 7 7 6 6 6 6 6 6 4 3 2 3 3 4 5 5 8 9 10 11
9 9 8 7 7 7 7 6 6 6 5 4 3 2 3 5 5 7 10 10 9 11
10 10 9 8 7 7 7 6 6 6 5 4 2 2 3 4 5 8 9 9 10 12
11 11 10 8 8 8 7 7 6 6 5 3 2 3 3 4 5 7 9 10 10 11
10 10 9 9 8 7 7 6 6 6 4 3 3 3 3 4 4 4 10 10 10 10
11 10 10 9 8 7 7 7 6 6 5 5 3 4 5 4 2 4 6 8 9 9
12 12 11 9 9 9 8 6 6 5 4 5 4 5 6 6 1 3 5 6 7 9
12 12 10 10 10 7 5 7 5 5 5 4 4 6 6 7 2 3 5 5 6 7
13 13 12 12 11 6 6 7 6 4 5 4 5 6 5 5 2 4 6 4 6 6
13 14 14 13 11 5 4 6 5 5 6 6 6 8 6 4 3 3 3 4 6 11
12 13 12 10 5 9 8 6 7 7 4 6 6 6 7 5 4 3 3 2 4 3
Wind_Direction
176 181 184 181 180 180 188 203 204 207 203 209 241 294 293 273 262 261 255 264 274 275
178 174 182 185 174 172 182 199 212 206 216 222 261 285 288 273 278 273 272 273 281 279
184 176 169 167 179 181 185 199 207 217 218 229 255 282 289 286 274 279 282 286 287 291
174 168 167 176 179 181 178 193 207 213 215 231 268 304 302 284 283 283 287 294 289 299
166 171 175 180 180 177 188 195 205 207 210 224 248 292 297 298 290 286 301 297 305 294
179 176 182 179 180 180 185 198 207 205 209 215 249 288 279 269 282 292 302 311 297 294
181 182 180 179 180 182 185 194 204 206 207 209 223 261 271 281 283 306 317 299 293 289
180 172 172 178 182 181 184 199 198 193 204 216 213 229 239 242 292 328 309 293 294 293
169 171 182 181 177 175 189 196 190 196 201 221 222 234 258 288 271 292 289 293 299 299
174 179 183 175 171 186 192 184 194 183 187 226 228 251 255 281 212 263 271 284 292 304
174 180 172 172 184 181 171 189 183 202 209 213 251 248 260 278 178 265 265 269 279 290
177 173 173 183 186 173 169 184 193 196 190 198 250 244 262 284 189 269 269 288 293 293
175 176 180 184 179 160 159 185 191 215 212 213 229 236 232 250 164 276 275 297 293 311
173 177 180 167 150 169 173 181 196 214 225 232 212 232 226 252 152 222 259 289 296 300